• En España
  • Lista de países
  • Para 7 días
  • Temperatura del agua
  • Mapa Satelital
  • El tiempo en el mapa
  • Informadores
  • user-avatar
    Iniciar sesión

    Tiempo cada hora Quito

    Hoy, 23 Mayo, Miércoles

    Tiempo Temperatura Precipitaciones Viento Presión Humedad
    00:00 +16°C° 0 mm 1 mps 624 mmHg 55%
    01:00 +13°C° 0 mm 1 mps 623 mmHg 62%
    02:00 +13°C° 0 mm 1 mps 623 mmHg 62%
    03:00 +12°C° 0 mm 1 mps 623 mmHg 63%
    04:00 +12°C° 0 mm 1 mps 623 mmHg 64%
    05:00 +12°C° 0 mm 1 mps 623 mmHg 64%
    06:00 +13°C° 0 mm 1 mps 623 mmHg 64%
    07:00 +13°C° 0 mm 1 mps 624 mmHg 64%
    08:00 +16°C° 0 mm 2 mps 625 mmHg 56%
    09:00 +19°C° 0 mm 3 mps 625 mmHg 47%
    10:00 +21°C° 0 mm 4 mps 626 mmHg 38%
    11:00 +22°C° 0 mm 3 mps 626 mmHg 36%
    12:00 +24°C° 0 mm 3 mps 626 mmHg 33%
    13:00 +25°C° 0 mm 2 mps 626 mmHg 30%
    14:00 +25°C° 0 mm 2 mps 625 mmHg 31%
    15:00 +25°C° 0 mm 1 mps 625 mmHg 32%
    16:00 +25°C° 0 mm 1 mps 624 mmHg 33%
    17:00 +22°C° 0 mm 1 mps 624 mmHg 38%
    18:00 +20°C° 0 mm 1 mps 624 mmHg 43%
    19:00 +18°C° 0 mm 1 mps 623 mmHg 47%
    20:00 +16°C° 0 mm 1 mps 623 mmHg 48%
    21:00 +16°C° 0 mm 1 mps 624 mmHg 49%
    22:00 +15°C° 0 mm 1 mps 624 mmHg 50%
    23:00 +15°C° 0 mm 1 mps 624 mmHg 52%

    Mañana, 24 Mayo, Jueves

    Tiempo Temperatura Precipitaciones Viento Presión Humedad
    00:00 +14°C° 0 mm 2 mps 624 mmHg 55%
    01:00 +13°C° 0 mm 2 mps 623 mmHg 57%
    02:00 +13°C° 0 mm 2 mps 623 mmHg 59%
    03:00 +13°C° 0 mm 2 mps 623 mmHg 61%
    04:00 +12°C° 0 mm 2 mps 623 mmHg 63%
    05:00 +13°C° 0 mm 1 mps 623 mmHg 64%
    06:00 +13°C° 0 mm 1 mps 623 mmHg 65%
    07:00 +13°C° 0 mm 1 mps 624 mmHg 66%
    08:00 +16°C° 0 mm 1 mps 625 mmHg 58%
    09:00 +19°C° 0 mm 2 mps 625 mmHg 51%
    10:00 +23°C° 0 mm 2 mps 626 mmHg 44%
    11:00 +25°C° 0 mm 2 mps 626 mmHg 40%
    12:00 +26°C° 0 mm 1 mps 626 mmHg 37%
    13:00 +27°C° 0 mm 1 mps 626 mmHg 34%
    14:00 +26°C° 0 mm 1 mps 625 mmHg 36%
    15:00 +25°C° 0 mm 1 mps 624 mmHg 38%
    16:00 +24°C° 0 mm 1 mps 624 mmHg 41%
    17:00 +22°C° 0 mm 1 mps 623 mmHg 46%
    18:00 +20°C° 0 mm 1 mps 623 mmHg 52%
    19:00 +18°C° 0 mm 1 mps 622 mmHg 57%
    20:00 +16°C° 0 mm 1 mps 623 mmHg 58%
    21:00 +16°C° 0 mm 1 mps 623 mmHg 58%
    22:00 +16°C° 0 mm 1 mps 623 mmHg 59%
    23:00 +16°C° 0 mm 1 mps 623 mmHg 59%

    Pasado mañana, 25 Mayo, Viernes

    Tiempo Temperatura Precipitaciones Viento Presión Humedad
    00:00 +16°C° 0 mm 1 mps 623 mmHg 60%
    01:00 +15°C° 0 mm 1 mps 623 mmHg 60%
    02:00 +15°C° 0 mm 1 mps 622 mmHg 62%
    03:00 +14°C° 0 mm 1 mps 622 mmHg 64%
    04:00 +14°C° 0 mm 1 mps 621 mmHg 66%
    05:00 +14°C° 0 mm 1 mps 622 mmHg 66%
    06:00 +14°C° 0 mm 1 mps 622 mmHg 66%
    07:00 +15°C° 0 mm 1 mps 623 mmHg 66%
    08:00 +17°C° 0 mm 2 mps 624 mmHg 59%
    09:00 +20°C° 0 mm 2 mps 625 mmHg 52%
    10:00 +22°C° 0 mm 3 mps 626 mmHg 44%
    11:00 +24°C° 0 mm 3 mps 625 mmHg 42%
    12:00 +25°C° 0 mm 2 mps 625 mmHg 39%
    13:00 +26°C° 0 mm 2 mps 624 mmHg 37%
    14:00 +25°C° 0 mm 1 mps 624 mmHg 38%
    15:00 +25°C° 0 mm 1 mps 623 mmHg 39%
    16:00 +24°C° 0 mm 1 mps 623 mmHg 40%
    17:00 +22°C° 0 mm 1 mps 623 mmHg 46%
    18:00 +20°C° 0 mm 1 mps 622 mmHg 51%
    19:00 +18°C° 0 mm 1 mps 622 mmHg 56%
    20:00 +16°C° 0 mm 1 mps 622 mmHg 57%
    21:00 +16°C° 0 mm 1 mps 623 mmHg 58%
    22:00 +15°C° 0 mm 1 mps 623 mmHg 58%
    23:00 +15°C° 0 mm 1 mps 623 mmHg 60%

    26 Mayo, Sábado

    Tiempo Temperatura Precipitaciones Viento Presión Humedad
    00:00 +15°C° 0 mm 1 mps 622 mmHg 61%
    01:00 +14°C° 0 mm 1 mps 622 mmHg 62%
    02:00 +14°C° 0 mm 1 mps 622 mmHg 63%
    03:00 +14°C° 0 mm 1 mps 622 mmHg 64%
    04:00 +14°C° 0 mm 1 mps 622 mmHg 64%
    05:00 +14°C° 0 mm 1 mps 622 mmHg 64%
    06:00 +14°C° 0 mm 1 mps 623 mmHg 64%
    07:00 +15°C° 0 mm 1 mps 623 mmHg 64%
    08:00 +17°C° 0 mm 2 mps 624 mmHg 56%
    09:00 +19°C° 0 mm 2 mps 625 mmHg 48%
    10:00 +22°C° 0 mm 3 mps 626 mmHg 40%
    11:00 +24°C° 0 mm 2 mps 625 mmHg 38%
    12:00 +25°C° 0 mm 2 mps 625 mmHg 36%
    13:00 +27°C° 0 mm 1 mps 625 mmHg 33%
    14:00 +26°C° 0 mm 1 mps 624 mmHg 35%
    15:00 +25°C° 0 mm 1 mps 624 mmHg 37%
    16:00 +22°C° 0 mm 0 mps 623 mmHg 38%
    17:00 +23°C° 0 mm 1 mps 623 mmHg 41%
    18:00 +21°C° 0 mm 1 mps 623 mmHg 44%
    19:00 +19°C° 0 mm 1 mps 623 mmHg 47%
    20:00 +18°C° 0 mm 1 mps 623 mmHg 49%
    21:00 +18°C° 0 mm 1 mps 623 mmHg 50%
    22:00 +16°C° 0 mm 1 mps 623 mmHg 52%
    23:00 +16°C° 0 mm 1 mps 623 mmHg 52%

    27 Mayo, Domingo

    Tiempo Temperatura Precipitaciones Viento Presión Humedad
    00:00 +16°C° 0 mm 1 mps 623 mmHg 53%
    01:00 +16°C° 0 mm 1 mps 623 mmHg 53%
    02:00 +15°C° 0 mm 1 mps 623 mmHg 57%
    03:00 +14°C° 0 mm 1 mps 623 mmHg 61%
    04:00 +13°C° 0 mm 1 mps 622 mmHg 65%
    05:00 +13°C° 0 mm 1 mps 623 mmHg 66%
    06:00 +14°C° 0 mm 1 mps 623 mmHg 67%
    07:00 +14°C° 0 mm 1 mps 624 mmHg 68%
    08:00 +17°C° 0 mm 2 mps 625 mmHg 60%
    09:00 +19°C° 0 mm 2 mps 626 mmHg 53%
    10:00 +22°C° 0 mm 3 mps 627 mmHg 45%
    11:00 +24°C° 0 mm 3 mps 626 mmHg 41%
    12:00 +25°C° 0 mm 2 mps 626 mmHg 36%
    13:00 +26°C° 0 mm 2 mps 625 mmHg 32%
    14:00 +25°C° 0 mm 2 mps 625 mmHg 34%
    15:00 +25°C° 0 mm 3 mps 625 mmHg 36%
    16:00 +24°C° 0 mm 3 mps 624 mmHg 38%
    17:00 +21°C° 0 mm 2 mps 624 mmHg 46%
    18:00 +19°C° 0 mm 2 mps 624 mmHg 53%
    19:00 +18°C° 0 mm 1 mps 624 mmHg 60%
    20:00 +16°C° 0 mm 1 mps 624 mmHg 61%
    21:00 +16°C° 0 mm 1 mps 624 mmHg 63%
    22:00 +15°C° 0 mm 1 mps 624 mmHg 64%
    23:00 +15°C° 0 mm 1 mps 624 mmHg 66%

    28 Mayo, Lunes

    Tiempo Temperatura Precipitaciones Viento Presión Humedad
    00:00 +14°C° 0 mm 1 mps 624 mmHg 68%
    01:00 +14°C° 0 mm 1 mps 623 mmHg 69%
    02:00 +14°C° 0 mm 1 mps 624 mmHg 69%
    03:00 +14°C° 0 mm 1 mps 624 mmHg 69%
    04:00 +15°C° 0 mm 1 mps 624 mmHg 69%
    05:00 +15°C° 0 mm 1 mps 624 mmHg 69%
    06:00 +15°C° 0 mm 1 mps 625 mmHg 69%
    07:00 +15°C° 0 mm 1 mps 625 mmHg 69%
    08:00 +19°C° 0 mm 1 mps 626 mmHg 60%
    09:00 +20°C° 0 mm 2 mps 626 mmHg 50%
    10:00 +24°C° 0 mm 2 mps 627 mmHg 40%
    11:00 +25°C° 0 mm 2 mps 627 mmHg 37%
    12:00 +26°C° 0 mm 2 mps 626 mmHg 34%
    13:00 +27°C° 0 mm 2 mps 626 mmHg 31%
    14:00 +27°C° 0 mm 1 mps 625 mmHg 31%
    15:00 +26°C° 0 mm 1 mps 625 mmHg 32%
    16:00 +26°C° 0 mm 1 mps 624 mmHg 33%
    17:00 +24°C° 0 mm 1 mps 624 mmHg 37%
    18:00 +22°C° 0 mm 1 mps 624 mmHg 41%
    19:00 +20°C° 0 mm 1 mps 624 mmHg 45%
    20:00 +19°C° 0 mm 1 mps 624 mmHg 47%
    21:00 +18°C° 0 mm 1 mps 624 mmHg 49%
    22:00 +15°C° 0 mm 0 mps 624 mmHg 51%
    23:00 +15°C° 0 mm 0 mps 624 mmHg 54%
    Mostrar más